Year,Month,Day,Hour,Minute,Value (Times are PST for temperature in C)
2017,06,25,00,00,17.40
2017,06,25,00,01,17.40
2017,06,25,00,02,17.40
2017,06,25,00,03,17.40
2017,06,25,00,04,17.40
2017,06,25,00,05,17.30
2017,06,25,00,06,17.30
2017,06,25,00,07,17.30
2017,06,25,00,08,17.30
2017,06,25,00,09,17.20
2017,06,25,00,10,17.20
2017,06,25,00,11,17.20
2017,06,25,00,12,17.10
2017,06,25,00,13,17.10
2017,06,25,00,14,17.10
2017,06,25,00,15,17.10
2017,06,25,00,16,17.10
2017,06,25,00,17,17.10
2017,06,25,00,18,17.10
2017,06,25,00,19,17.10
2017,06,25,00,20,17.10
2017,06,25,00,21,17.20
2017,06,25,00,22,17.10
2017,06,25,00,23,17.10
2017,06,25,00,24,17.10
2017,06,25,00,25,17.10
2017,06,25,00,26,17.10
2017,06,25,00,27,17.00
2017,06,25,00,28,17.00
2017,06,25,00,29,17.00
2017,06,25,00,30,16.90
2017,06,25,00,31,16.90
2017,06,25,00,32,16.90
2017,06,25,00,33,16.80
2017,06,25,00,34,16.80
2017,06,25,00,35,16.80
2017,06,25,00,36,16.80
2017,06,25,00,37,16.80
2017,06,25,00,38,16.80
2017,06,25,00,39,16.80
2017,06,25,00,40,16.80
2017,06,25,00,41,16.80
2017,06,25,00,42,16.80
2017,06,25,00,43,16.80
2017,06,25,00,44,16.80
2017,06,25,00,45,16.80
2017,06,25,00,46,16.80
2017,06,25,00,47,16.80
2017,06,25,00,48,16.70
2017,06,25,00,49,16.70
2017,06,25,00,50,16.70
2017,06,25,00,51,16.70
2017,06,25,00,52,16.70
2017,06,25,00,53,16.70
2017,06,25,00,54,16.70
2017,06,25,00,55,16.70
2017,06,25,00,56,16.70
2017,06,25,00,57,16.70
2017,06,25,00,58,16.60
2017,06,25,00,59,16.60
2017,06,25,01,00,16.60
2017,06,25,01,01,16.60
2017,06,25,01,02,16.60
2017,06,25,01,03,16.60
2017,06,25,01,04,16.50
2017,06,25,01,05,16.50
2017,06,25,01,06,16.50
2017,06,25,01,07,16.40
2017,06,25,01,08,16.40
2017,06,25,01,09,16.40
2017,06,25,01,10,16.40
2017,06,25,01,11,16.40
2017,06,25,01,12,16.40
2017,06,25,01,13,16.40
2017,06,25,01,14,16.30
2017,06,25,01,15,16.30
2017,06,25,01,16,16.30
2017,06,25,01,17,16.30
2017,06,25,01,18,16.30
2017,06,25,01,19,16.20
2017,06,25,01,20,16.20
2017,06,25,01,21,16.20
2017,06,25,01,22,16.20
2017,06,25,01,23,16.20
2017,06,25,01,24,16.30
2017,06,25,01,25,16.30
2017,06,25,01,26,16.20
2017,06,25,01,27,16.20
2017,06,25,01,28,16.20
2017,06,25,01,29,16.20
2017,06,25,01,30,16.20
2017,06,25,01,31,16.20
2017,06,25,01,32,16.20
2017,06,25,01,33,16.20
2017,06,25,01,34,16.20
2017,06,25,01,35,16.20
2017,06,25,01,36,16.20
2017,06,25,01,37,16.20
2017,06,25,01,38,16.20
2017,06,25,01,39,16.20
2017,06,25,01,40,16.20
2017,06,25,01,41,16.20
2017,06,25,01,42,16.20
2017,06,25,01,43,16.20
2017,06,25,01,44,16.20
2017,06,25,01,45,16.20
2017,06,25,01,46,16.20
2017,06,25,01,47,16.20
2017,06,25,01,48,16.20
2017,06,25,01,49,16.20
2017,06,25,01,50,16.20
2017,06,25,01,51,16.20
2017,06,25,01,52,16.20
2017,06,25,01,53,16.20
2017,06,25,01,54,16.20
2017,06,25,01,55,16.20
2017,06,25,01,56,16.20
2017,06,25,01,57,16.20
2017,06,25,01,58,16.20
2017,06,25,01,59,16.20
2017,06,25,02,00,16.10
2017,06,25,02,01,16.10
2017,06,25,02,02,16.10
2017,06,25,02,03,16.10
2017,06,25,02,04,16.10
2017,06,25,02,05,16.20
2017,06,25,02,06,16.10
2017,06,25,02,07,16.10
2017,06,25,02,08,16.10
2017,06,25,02,09,16.10
2017,06,25,02,10,16.10
2017,06,25,02,11,16.10
2017,06,25,02,12,16.20
2017,06,25,02,13,16.20
2017,06,25,02,14,16.20
2017,06,25,02,15,16.20
2017,06,25,02,16,16.10
2017,06,25,02,17,16.20
2017,06,25,02,18,16.10
2017,06,25,02,19,16.10
2017,06,25,02,20,16.10
2017,06,25,02,21,16.10
2017,06,25,02,22,16.10
2017,06,25,02,23,16.00
2017,06,25,02,24,16.00
2017,06,25,02,25,15.90
2017,06,25,02,26,15.90
2017,06,25,02,27,15.90
2017,06,25,02,28,15.80
2017,06,25,02,29,15.80
2017,06,25,02,30,15.80
2017,06,25,02,31,15.80
2017,06,25,02,32,15.70
2017,06,25,02,33,15.70
2017,06,25,02,34,15.70
2017,06,25,02,35,15.70
2017,06,25,02,36,15.70
2017,06,25,02,37,15.60
2017,06,25,02,38,15.60
2017,06,25,02,39,15.60
2017,06,25,02,40,15.60
2017,06,25,02,41,15.60
2017,06,25,02,42,15.60
2017,06,25,02,43,15.60
2017,06,25,02,44,15.50
2017,06,25,02,45,15.50
2017,06,25,02,46,15.50
2017,06,25,02,47,15.40
2017,06,25,02,48,15.40
2017,06,25,02,49,15.40
2017,06,25,02,50,15.30
2017,06,25,02,51,15.30
2017,06,25,02,52,15.30
2017,06,25,02,53,15.20
2017,06,25,02,54,15.20
2017,06,25,02,55,15.10
2017,06,25,02,56,15.00
2017,06,25,02,57,15.00
2017,06,25,02,58,15.00
2017,06,25,02,59,15.00
2017,06,25,03,00,15.00
2017,06,25,03,01,15.00
2017,06,25,03,02,15.00
2017,06,25,03,03,15.00
2017,06,25,03,04,15.00
2017,06,25,03,05,15.00
2017,06,25,03,06,15.00
2017,06,25,03,07,15.00
2017,06,25,03,08,15.00
2017,06,25,03,09,15.00
2017,06,25,03,10,15.00
2017,06,25,03,11,15.00
2017,06,25,03,12,15.00
2017,06,25,03,13,15.00
2017,06,25,03,14,15.00
2017,06,25,03,15,15.00
2017,06,25,03,16,15.00
2017,06,25,03,17,15.00
2017,06,25,03,18,15.00
2017,06,25,03,19,15.00
2017,06,25,03,20,15.00
2017,06,25,03,21,15.00
2017,06,25,03,22,15.00
2017,06,25,03,23,15.00
2017,06,25,03,24,15.00
2017,06,25,03,25,15.00
2017,06,25,03,26,15.00
2017,06,25,03,27,15.00
2017,06,25,03,28,15.00
2017,06,25,03,29,15.00
2017,06,25,03,30,15.00
2017,06,25,03,31,15.00
2017,06,25,03,32,15.00
2017,06,25,03,33,15.00
2017,06,25,03,34,15.00
2017,06,25,03,35,15.00
2017,06,25,03,36,15.00
2017,06,25,03,37,15.00
2017,06,25,03,38,15.00
2017,06,25,03,39,15.00
2017,06,25,03,40,15.00
2017,06,25,03,41,15.00
2017,06,25,03,42,15.00
2017,06,25,03,43,15.00
2017,06,25,03,44,15.00
2017,06,25,03,45,15.00
2017,06,25,03,46,15.00
2017,06,25,03,47,15.00
2017,06,25,03,48,15.00
2017,06,25,03,49,15.00
2017,06,25,03,50,14.90
2017,06,25,03,51,14.90
2017,06,25,03,52,14.90
2017,06,25,03,53,14.90
2017,06,25,03,54,14.80
2017,06,25,03,55,14.80
2017,06,25,03,56,14.80
2017,06,25,03,57,14.80
2017,06,25,03,58,14.80
2017,06,25,03,59,14.80
2017,06,25,04,00,14.80
2017,06,25,04,01,14.80
2017,06,25,04,02,14.80
2017,06,25,04,03,14.80
2017,06,25,04,04,14.80
2017,06,25,04,05,14.80
2017,06,25,04,06,14.80
2017,06,25,04,07,14.80
2017,06,25,04,08,14.80
2017,06,25,04,09,14.80
2017,06,25,04,10,14.80
2017,06,25,04,11,14.80
2017,06,25,04,12,14.70
2017,06,25,04,13,14.70
2017,06,25,04,14,14.70
2017,06,25,04,15,14.70
2017,06,25,04,16,14.60
2017,06,25,04,17,14.60
2017,06,25,04,18,14.60
2017,06,25,04,19,14.60
2017,06,25,04,20,14.60
2017,06,25,04,21,14.50
2017,06,25,04,22,14.50
2017,06,25,04,23,14.50
2017,06,25,04,24,14.50
2017,06,25,04,25,14.50
2017,06,25,04,26,14.50
2017,06,25,04,27,14.50
2017,06,25,04,28,14.50
2017,06,25,04,29,14.50
2017,06,25,04,30,14.40
2017,06,25,04,31,14.40
2017,06,25,04,32,14.40
2017,06,25,04,33,14.40
2017,06,25,04,34,14.40
2017,06,25,04,35,14.40
2017,06,25,04,36,14.40
2017,06,25,04,37,14.40
2017,06,25,04,38,14.40
2017,06,25,04,39,14.40
2017,06,25,04,40,14.40
2017,06,25,04,41,14.30
2017,06,25,04,42,14.30
2017,06,25,04,43,14.30
2017,06,25,04,44,14.30
2017,06,25,04,45,14.30
2017,06,25,04,46,14.30
2017,06,25,04,47,14.30
2017,06,25,04,48,14.30
2017,06,25,04,49,14.30
2017,06,25,04,50,14.30
2017,06,25,04,51,14.30
2017,06,25,04,52,14.20
2017,06,25,04,53,14.20
2017,06,25,04,54,14.20
2017,06,25,04,55,14.20
2017,06,25,04,56,14.20
2017,06,25,04,57,14.20
2017,06,25,04,58,14.20
2017,06,25,04,59,14.20
2017,06,25,05,00,14.20
2017,06,25,05,01,14.10
2017,06,25,05,02,14.10
2017,06,25,05,03,14.10
2017,06,25,05,04,14.10
2017,06,25,05,05,14.10
2017,06,25,05,06,14.10
2017,06,25,05,07,14.10
2017,06,25,05,08,14.10
2017,06,25,05,09,14.10
2017,06,25,05,10,14.10
2017,06,25,05,11,14.10
2017,06,25,05,12,14.10
2017,06,25,05,13,14.10
2017,06,25,05,14,14.10
2017,06,25,05,15,14.10
2017,06,25,05,16,14.10
2017,06,25,05,17,14.10
2017,06,25,05,18,14.10
2017,06,25,05,19,14.10
2017,06,25,05,20,14.10
2017,06,25,05,21,14.10
2017,06,25,05,22,14.10
2017,06,25,05,23,14.10
2017,06,25,05,24,14.10
2017,06,25,05,25,14.10
2017,06,25,05,26,14.10
2017,06,25,05,27,14.10
2017,06,25,05,28,14.10
2017,06,25,05,29,14.00
2017,06,25,05,30,14.00
2017,06,25,05,31,14.00
2017,06,25,05,32,14.00
2017,06,25,05,33,14.00
2017,06,25,05,34,13.90
2017,06,25,05,35,13.90
2017,06,25,05,36,13.90
2017,06,25,05,37,13.90
2017,06,25,05,38,13.90
2017,06,25,05,39,13.90
2017,06,25,05,40,13.90
2017,06,25,05,41,13.90
2017,06,25,05,42,13.90
2017,06,25,05,43,13.90
2017,06,25,05,44,13.90
2017,06,25,05,45,13.90
2017,06,25,05,46,13.90
2017,06,25,05,47,13.90
2017,06,25,05,48,13.90
2017,06,25,05,49,13.90
2017,06,25,05,50,13.90
2017,06,25,05,51,13.90
2017,06,25,05,52,13.90
2017,06,25,05,53,13.90
2017,06,25,05,54,13.90
2017,06,25,05,55,13.90
2017,06,25,05,56,13.90
2017,06,25,05,57,14.00
2017,06,25,05,58,14.00
2017,06,25,05,59,14.00
2017,06,25,06,00,14.00
2017,06,25,06,01,14.00
2017,06,25,06,02,14.10
2017,06,25,06,03,14.10
2017,06,25,06,04,14.10
2017,06,25,06,05,14.10
2017,06,25,06,06,14.10
2017,06,25,06,07,14.10
2017,06,25,06,08,14.10
2017,06,25,06,09,14.10
2017,06,25,06,10,14.10
2017,06,25,06,11,14.10
2017,06,25,06,12,14.10
2017,06,25,06,13,14.20
2017,06,25,06,14,14.20
2017,06,25,06,15,14.20
2017,06,25,06,16,14.20
2017,06,25,06,17,14.30
2017,06,25,06,18,14.30
2017,06,25,06,19,14.30
2017,06,25,06,20,14.40
2017,06,25,06,21,14.40
2017,06,25,06,22,14.40
2017,06,25,06,23,14.50
2017,06,25,06,24,14.50
2017,06,25,06,25,14.60
2017,06,25,06,26,14.60
2017,06,25,06,27,14.60
2017,06,25,06,28,14.60
2017,06,25,06,29,14.70
2017,06,25,06,30,14.70
2017,06,25,06,31,14.70
2017,06,25,06,32,14.70
2017,06,25,06,33,14.70
2017,06,25,06,34,14.70
2017,06,25,06,35,14.70
2017,06,25,06,36,14.70
2017,06,25,06,37,14.70
2017,06,25,06,38,14.70
2017,06,25,06,39,14.70
2017,06,25,06,40,14.70
2017,06,25,06,41,14.70
2017,06,25,06,42,14.70
2017,06,25,06,43,14.70
2017,06,25,06,44,14.70
2017,06,25,06,45,14.70
2017,06,25,06,46,14.70
2017,06,25,06,47,14.70
2017,06,25,06,48,14.70
2017,06,25,06,49,14.70
2017,06,25,06,50,14.70
2017,06,25,06,51,14.70
2017,06,25,06,52,14.70
2017,06,25,06,53,14.70
2017,06,25,06,54,14.70
2017,06,25,06,55,14.70
2017,06,25,06,56,14.80
2017,06,25,06,57,14.80
2017,06,25,06,58,14.80
2017,06,25,06,59,14.90
2017,06,25,07,00,14.90
2017,06,25,07,01,15.00
2017,06,25,07,02,15.00
2017,06,25,07,03,15.00
2017,06,25,07,04,15.00
2017,06,25,07,05,15.00
2017,06,25,07,06,15.00
2017,06,25,07,07,15.00
2017,06,25,07,08,15.00
2017,06,25,07,09,15.10
2017,06,25,07,10,15.20
2017,06,25,07,11,15.20
2017,06,25,07,12,15.30
2017,06,25,07,13,15.30
2017,06,25,07,14,15.40
2017,06,25,07,15,15.40
2017,06,25,07,16,15.50
2017,06,25,07,17,15.50
2017,06,25,07,18,15.60
2017,06,25,07,19,15.60
2017,06,25,07,20,15.70
2017,06,25,07,21,15.70
2017,06,25,07,22,15.70
2017,06,25,07,23,15.80
2017,06,25,07,24,15.90
2017,06,25,07,25,15.90
2017,06,25,07,26,16.00
2017,06,25,07,27,16.10
2017,06,25,07,28,16.10
2017,06,25,07,29,16.20
2017,06,25,07,30,16.30
2017,06,25,07,31,16.30
2017,06,25,07,32,16.40
2017,06,25,07,33,16.40
2017,06,25,07,34,16.50
2017,06,25,07,35,16.50
2017,06,25,07,36,16.60
2017,06,25,07,37,16.70
2017,06,25,07,38,16.70
2017,06,25,07,39,16.70
2017,06,25,07,40,16.80
2017,06,25,07,41,16.80
2017,06,25,07,42,16.80
2017,06,25,07,43,16.90
2017,06,25,07,44,16.90
2017,06,25,07,45,16.90
2017,06,25,07,46,16.90
2017,06,25,07,47,17.00
2017,06,25,07,48,17.00
2017,06,25,07,49,17.10
2017,06,25,07,50,17.10
2017,06,25,07,51,17.10
2017,06,25,07,52,17.20
2017,06,25,07,53,17.20
2017,06,25,07,54,17.30
2017,06,25,07,55,17.30
2017,06,25,07,56,17.30
2017,06,25,07,57,17.40
2017,06,25,07,58,17.40
2017,06,25,07,59,17.40
2017,06,25,08,00,17.50
2017,06,25,08,01,17.50
2017,06,25,08,02,17.60
2017,06,25,08,03,17.60
2017,06,25,08,04,17.70
2017,06,25,08,05,17.70
2017,06,25,08,06,17.80
2017,06,25,08,07,17.80
2017,06,25,08,08,17.80
2017,06,25,08,09,17.90
2017,06,25,08,10,17.90
2017,06,25,08,11,18.00
2017,06,25,08,12,18.00
2017,06,25,08,13,18.10
2017,06,25,08,14,18.20
2017,06,25,08,15,18.20
2017,06,25,08,16,18.30
2017,06,25,08,17,18.30
2017,06,25,08,18,18.40
2017,06,25,08,19,18.40
2017,06,25,08,20,18.50
2017,06,25,08,21,18.60
2017,06,25,08,22,18.60
2017,06,25,08,23,18.70
2017,06,25,08,24,18.70
2017,06,25,08,25,18.80
2017,06,25,08,26,18.90
2017,06,25,08,27,18.90
2017,06,25,08,28,19.00
2017,06,25,08,29,19.10
2017,06,25,08,30,19.20
2017,06,25,08,31,19.20
2017,06,25,08,32,19.30
2017,06,25,08,33,19.40
2017,06,25,08,34,19.50
2017,06,25,08,35,19.60
2017,06,25,08,36,19.70
2017,06,25,08,37,19.80
2017,06,25,08,38,19.90
2017,06,25,08,39,20.00
2017,06,25,08,40,20.10
2017,06,25,08,41,20.30
2017,06,25,08,42,20.40
2017,06,25,08,43,20.40
2017,06,25,08,44,20.50
2017,06,25,08,45,20.60
2017,06,25,08,46,20.70
2017,06,25,08,47,20.70
2017,06,25,08,48,20.80
2017,06,25,08,49,20.90
2017,06,25,08,50,21.00
2017,06,25,08,51,21.10
2017,06,25,08,52,21.20
2017,06,25,08,53,21.20
2017,06,25,08,54,21.30
2017,06,25,08,55,21.40
2017,06,25,08,56,21.50
2017,06,25,08,57,21.50
2017,06,25,08,58,21.60
2017,06,25,08,59,21.70
2017,06,25,09,00,21.80
2017,06,25,09,01,21.80
2017,06,25,09,02,21.90
2017,06,25,09,03,21.90
2017,06,25,09,04,22.00
2017,06,25,09,05,22.00
2017,06,25,09,06,22.10
2017,06,25,09,07,22.20
2017,06,25,09,08,22.20
2017,06,25,09,09,22.20
2017,06,25,09,10,22.20
2017,06,25,09,11,22.20
2017,06,25,09,12,22.30
2017,06,25,09,13,22.40
2017,06,25,09,14,22.60
2017,06,25,09,15,22.70
2017,06,25,09,16,22.80
2017,06,25,09,17,23.00
2017,06,25,09,18,23.10
2017,06,25,09,19,23.10
2017,06,25,09,20,23.20
2017,06,25,09,21,23.30
2017,06,25,09,22,23.40
2017,06,25,09,23,23.40
2017,06,25,09,24,23.40
2017,06,25,09,25,23.50
2017,06,25,09,26,23.50
2017,06,25,09,27,23.60
2017,06,25,09,28,23.60
2017,06,25,09,29,23.70
2017,06,25,09,30,23.70
2017,06,25,09,31,23.80
2017,06,25,09,32,23.80
2017,06,25,09,33,23.80
2017,06,25,09,34,23.80
2017,06,25,09,35,23.80
2017,06,25,09,36,23.90
2017,06,25,09,37,23.90
2017,06,25,09,38,23.90
2017,06,25,09,39,23.90
2017,06,25,09,40,23.90
2017,06,25,09,41,24.00
2017,06,25,09,42,24.00
2017,06,25,09,43,24.10
2017,06,25,09,44,24.20
2017,06,25,09,45,24.20
2017,06,25,09,46,24.30
2017,06,25,09,47,24.40
2017,06,25,09,48,24.40
2017,06,25,09,49,24.50
2017,06,25,09,50,24.60
2017,06,25,09,51,24.70
2017,06,25,09,52,24.70
2017,06,25,09,53,24.70
2017,06,25,09,54,24.80
2017,06,25,09,55,24.80
2017,06,25,09,56,24.80
2017,06,25,09,57,24.90
2017,06,25,09,58,24.90
2017,06,25,09,59,24.90
2017,06,25,10,00,24.90
2017,06,25,10,01,24.90
2017,06,25,10,02,24.90
2017,06,25,10,03,24.90
2017,06,25,10,04,24.90
2017,06,25,10,05,25.00
2017,06,25,10,06,25.00
2017,06,25,10,07,25.10
2017,06,25,10,08,25.10
2017,06,25,10,09,25.10
2017,06,25,10,10,25.10
2017,06,25,10,11,25.20
2017,06,25,10,12,25.20
2017,06,25,10,13,25.20
2017,06,25,10,14,25.10
2017,06,25,10,15,25.10
2017,06,25,10,16,25.10
2017,06,25,10,17,25.10
2017,06,25,10,18,25.10
2017,06,25,10,19,25.10
2017,06,25,10,20,25.10
2017,06,25,10,21,25.20
2017,06,25,10,22,25.20
2017,06,25,10,23,25.20
2017,06,25,10,24,25.20
2017,06,25,10,25,25.20
2017,06,25,10,26,25.20
2017,06,25,10,27,25.20
2017,06,25,10,28,25.30
2017,06,25,10,29,25.30
2017,06,25,10,30,25.30
2017,06,25,10,31,25.30
2017,06,25,10,32,25.40
2017,06,25,10,33,25.40
2017,06,25,10,34,25.40
2017,06,25,10,35,25.40
2017,06,25,10,36,25.40
2017,06,25,10,37,25.50
2017,06,25,10,38,25.50
2017,06,25,10,39,25.50
2017,06,25,10,40,25.60
2017,06,25,10,41,25.60
2017,06,25,10,42,25.60
2017,06,25,10,43,25.60
2017,06,25,10,44,25.60
2017,06,25,10,45,25.50
2017,06,25,10,46,25.50
2017,06,25,10,47,25.50
2017,06,25,10,48,25.40
2017,06,25,10,49,25.40
2017,06,25,10,50,25.50
2017,06,25,10,51,25.50
2017,06,25,10,52,25.60
2017,06,25,10,53,25.70
2017,06,25,10,54,25.70
2017,06,25,10,55,25.80
2017,06,25,10,56,25.80
2017,06,25,10,57,25.80
2017,06,25,10,58,25.80
2017,06,25,10,59,25.80
2017,06,25,11,00,25.90
2017,06,25,11,01,25.90
2017,06,25,11,02,25.90
2017,06,25,11,03,25.90
2017,06,25,11,04,25.90
2017,06,25,11,05,25.90
2017,06,25,11,06,25.90
2017,06,25,11,07,25.90
2017,06,25,11,08,25.90
2017,06,25,11,09,26.00
2017,06,25,11,10,26.10
2017,06,25,11,11,26.10
2017,06,25,11,12,26.10
2017,06,25,11,13,26.20
2017,06,25,11,14,26.20
2017,06,25,11,15,26.20
2017,06,25,11,16,26.20
2017,06,25,11,17,26.30
2017,06,25,11,18,26.30
2017,06,25,11,19,26.20
2017,06,25,11,20,26.20
2017,06,25,11,21,26.20
2017,06,25,11,22,26.20
2017,06,25,11,23,26.30
2017,06,25,11,24,26.30
2017,06,25,11,25,26.40
2017,06,25,11,26,26.40
2017,06,25,11,27,26.50
2017,06,25,11,28,26.60
2017,06,25,11,29,26.60
2017,06,25,11,30,26.70
2017,06,25,11,31,26.70
2017,06,25,11,32,26.80
2017,06,25,11,33,26.90
2017,06,25,11,34,27.00
2017,06,25,11,35,27.10
2017,06,25,11,36,27.20
2017,06,25,11,37,27.30
2017,06,25,11,38,27.50
2017,06,25,11,39,27.60
2017,06,25,11,40,27.60
2017,06,25,11,41,27.70
2017,06,25,11,42,27.70
2017,06,25,11,43,27.70
2017,06,25,11,44,27.70
2017,06,25,11,45,27.70
2017,06,25,11,46,27.70
2017,06,25,11,47,27.60
2017,06,25,11,48,27.60
2017,06,25,11,49,27.60
2017,06,25,11,50,27.50
2017,06,25,11,51,27.40
2017,06,25,11,52,27.40
2017,06,25,11,53,27.40
2017,06,25,11,54,27.30
2017,06,25,11,55,27.40
2017,06,25,11,56,27.40
2017,06,25,11,57,27.40
2017,06,25,11,58,27.50
2017,06,25,11,59,27.50
2017,06,25,12,00,27.50
2017,06,25,12,01,27.50
2017,06,25,12,02,27.50
2017,06,25,12,03,27.50
2017,06,25,12,04,27.40
2017,06,25,12,05,27.50
2017,06,25,12,06,27.50
2017,06,25,12,07,27.50
2017,06,25,12,08,27.60
2017,06,25,12,09,27.60
2017,06,25,12,10,27.70
2017,06,25,12,11,27.70
2017,06,25,12,12,27.70
2017,06,25,12,13,27.80
2017,06,25,12,14,27.80
2017,06,25,12,15,27.80
2017,06,25,12,16,27.90
2017,06,25,12,17,28.00
2017,06,25,12,18,28.10
2017,06,25,12,19,28.20
2017,06,25,12,20,28.30
2017,06,25,12,21,28.40
2017,06,25,12,22,28.50
2017,06,25,12,23,28.60
2017,06,25,12,24,28.70
2017,06,25,12,25,28.80
2017,06,25,12,26,29.00
2017,06,25,12,27,29.10
2017,06,25,12,28,29.20
2017,06,25,12,29,29.30
2017,06,25,12,30,29.30
2017,06,25,12,31,29.40
2017,06,25,12,32,29.40
2017,06,25,12,33,29.40
2017,06,25,12,34,29.50
2017,06,25,12,35,29.50
2017,06,25,12,36,29.50
2017,06,25,12,37,29.60
2017,06,25,12,38,29.60
2017,06,25,12,39,29.60
2017,06,25,12,40,29.70
2017,06,25,12,41,29.70
2017,06,25,12,42,29.80
2017,06,25,12,43,29.90
2017,06,25,12,44,30.00
2017,06,25,12,45,30.10
2017,06,25,12,46,30.20
2017,06,25,12,47,30.30
2017,06,25,12,48,30.40
2017,06,25,12,49,30.50
2017,06,25,12,50,30.50
2017,06,25,12,51,30.60
2017,06,25,12,52,30.60
2017,06,25,12,53,30.60
2017,06,25,12,54,30.50
2017,06,25,12,55,30.40
2017,06,25,12,56,30.40
2017,06,25,12,57,30.40
2017,06,25,12,58,30.30
2017,06,25,12,59,30.30
2017,06,25,13,00,30.30
2017,06,25,13,01,30.30
2017,06,25,13,02,30.40
2017,06,25,13,03,30.40
2017,06,25,13,04,30.40
2017,06,25,13,05,30.50
2017,06,25,13,06,30.60
2017,06,25,13,07,30.60
2017,06,25,13,08,30.60
2017,06,25,13,09,30.60
2017,06,25,13,10,30.70
2017,06,25,13,11,30.70
2017,06,25,13,12,30.70
2017,06,25,13,13,30.70
2017,06,25,13,14,30.70
2017,06,25,13,15,30.70
2017,06,25,13,16,30.80
2017,06,25,13,17,30.80
2017,06,25,13,18,30.80
2017,06,25,13,19,30.80
2017,06,25,13,20,30.80
2017,06,25,13,21,30.90
2017,06,25,13,22,30.90
2017,06,25,13,23,30.90
2017,06,25,13,24,30.90
2017,06,25,13,25,30.90
2017,06,25,13,26,30.80
2017,06,25,13,27,30.70
2017,06,25,13,28,30.70
2017,06,25,13,29,30.70
2017,06,25,13,30,30.70
2017,06,25,13,31,30.80
2017,06,25,13,32,30.80
2017,06,25,13,33,30.80
2017,06,25,13,34,30.90
2017,06,25,13,35,30.90
2017,06,25,13,36,30.90
2017,06,25,13,37,30.90
2017,06,25,13,38,30.90
2017,06,25,13,39,30.80
2017,06,25,13,40,30.80
2017,06,25,13,41,30.80
2017,06,25,13,42,30.80
2017,06,25,13,43,30.80
2017,06,25,13,44,30.70
2017,06,25,13,45,30.70
2017,06,25,13,46,30.60
2017,06,25,13,47,30.60
2017,06,25,13,48,30.60
2017,06,25,13,49,30.60
2017,06,25,13,50,30.60
2017,06,25,13,51,30.60
2017,06,25,13,52,30.60
2017,06,25,13,53,30.70
2017,06,25,13,54,30.70
2017,06,25,13,55,30.80
2017,06,25,13,56,30.80
2017,06,25,13,57,30.80
2017,06,25,13,58,30.80
2017,06,25,13,59,30.80
2017,06,25,14,00,30.70
2017,06,25,14,01,30.70
2017,06,25,14,02,30.60
2017,06,25,14,03,30.50
2017,06,25,14,04,30.50
2017,06,25,14,05,30.50
2017,06,25,14,06,30.50
2017,06,25,14,07,30.60
2017,06,25,14,08,30.60
2017,06,25,14,09,30.60
2017,06,25,14,10,30.70
2017,06,25,14,11,30.80
2017,06,25,14,12,30.90
2017,06,25,14,13,31.00
2017,06,25,14,14,31.10
2017,06,25,14,15,31.10
2017,06,25,14,16,31.10
2017,06,25,14,17,31.10
2017,06,25,14,18,31.10
2017,06,25,14,19,31.10
2017,06,25,14,20,31.10
2017,06,25,14,21,31.10
2017,06,25,14,22,31.10
2017,06,25,14,23,31.10
2017,06,25,14,24,31.10
2017,06,25,14,25,31.10
2017,06,25,14,26,31.20
2017,06,25,14,27,31.30
2017,06,25,14,28,31.30
2017,06,25,14,29,31.40
2017,06,25,14,30,31.50
2017,06,25,14,31,31.50
2017,06,25,14,32,31.60
2017,06,25,14,33,31.60
2017,06,25,14,34,31.70
2017,06,25,14,35,31.70
2017,06,25,14,36,31.70
2017,06,25,14,37,31.60
2017,06,25,14,38,31.60
2017,06,25,14,39,31.60
2017,06,25,14,40,31.60
2017,06,25,14,41,31.70
2017,06,25,14,42,31.70
2017,06,25,14,43,31.70
2017,06,25,14,44,31.70
2017,06,25,14,45,31.70
2017,06,25,14,46,31.70
2017,06,25,14,47,31.70
2017,06,25,14,48,31.70
2017,06,25,14,49,31.60
2017,06,25,14,50,31.60
2017,06,25,14,51,31.60
2017,06,25,14,52,31.60
2017,06,25,14,53,31.60
2017,06,25,14,54,31.70
2017,06,25,14,55,31.60
2017,06,25,14,56,31.60
2017,06,25,14,57,31.60
2017,06,25,14,58,31.60
2017,06,25,14,59,31.50
2017,06,25,15,00,31.50
2017,06,25,15,01,31.50
2017,06,25,15,02,31.40
2017,06,25,15,03,31.40
2017,06,25,15,04,31.30
2017,06,25,15,05,31.30
2017,06,25,15,06,31.20
2017,06,25,15,07,31.20
2017,06,25,15,08,31.20
2017,06,25,15,09,31.20
2017,06,25,15,10,31.20
2017,06,25,15,11,31.20
2017,06,25,15,12,31.20
2017,06,25,15,13,31.20
2017,06,25,15,14,31.20
2017,06,25,15,15,31.20
2017,06,25,15,16,31.20
2017,06,25,15,17,31.20
2017,06,25,15,18,31.20
2017,06,25,15,19,31.20
2017,06,25,15,20,31.30
2017,06,25,15,21,31.30
2017,06,25,15,22,31.20
2017,06,25,15,23,31.20
2017,06,25,15,24,31.20
2017,06,25,15,25,31.20
2017,06,25,15,26,31.10
2017,06,25,15,27,31.10
2017,06,25,15,28,31.10
2017,06,25,15,29,31.10
2017,06,25,15,30,31.10
2017,06,25,15,31,31.00
2017,06,25,15,32,31.00
2017,06,25,15,33,31.00
2017,06,25,15,34,31.00
2017,06,25,15,35,31.00
2017,06,25,15,36,31.00
2017,06,25,15,37,31.10
2017,06,25,15,38,31.10
2017,06,25,15,39,31.20
2017,06,25,15,40,31.20
2017,06,25,15,41,31.30
2017,06,25,15,42,31.30
2017,06,25,15,43,31.30
2017,06,25,15,44,31.40
2017,06,25,15,45,31.40
2017,06,25,15,46,31.50
2017,06,25,15,47,31.50
2017,06,25,15,48,31.50
2017,06,25,15,49,31.40
2017,06,25,15,50,31.40
2017,06,25,15,51,31.30
2017,06,25,15,52,31.30
2017,06,25,15,53,31.20
2017,06,25,15,54,31.20
2017,06,25,15,55,31.20
2017,06,25,15,56,31.20
2017,06,25,15,57,31.20
2017,06,25,15,58,31.20
2017,06,25,15,59,31.30
2017,06,25,16,00,31.40
2017,06,25,16,01,31.50
2017,06,25,16,02,31.50
2017,06,25,16,03,31.60
2017,06,25,16,04,31.60
2017,06,25,16,05,31.60
2017,06,25,16,06,31.70
2017,06,25,16,07,31.70
2017,06,25,16,08,31.70
2017,06,25,16,09,31.70
2017,06,25,16,10,31.70
2017,06,25,16,11,31.70
2017,06,25,16,12,31.80
2017,06,25,16,13,31.80
2017,06,25,16,14,31.80
2017,06,25,16,15,31.90
2017,06,25,16,16,31.90
2017,06,25,16,17,31.80
2017,06,25,16,18,31.80
2017,06,25,16,19,31.70
2017,06,25,16,20,31.70
2017,06,25,16,21,31.70
2017,06,25,16,22,31.70
2017,06,25,16,23,31.70
2017,06,25,16,24,31.70
2017,06,25,16,25,31.70
2017,06,25,16,26,31.70
2017,06,25,16,27,31.70
2017,06,25,16,28,31.70
2017,06,25,16,29,31.70
2017,06,25,16,30,31.70
2017,06,25,16,31,31.70
2017,06,25,16,32,31.80
2017,06,25,16,33,31.80
2017,06,25,16,34,31.70
2017,06,25,16,35,31.70
2017,06,25,16,36,31.60
2017,06,25,16,37,31.60
2017,06,25,16,38,31.50
2017,06,25,16,39,31.40
2017,06,25,16,40,31.40
2017,06,25,16,41,31.30
2017,06,25,16,42,31.30
2017,06,25,16,43,31.20
2017,06,25,16,44,31.10
2017,06,25,16,45,31.10
2017,06,25,16,46,31.00
2017,06,25,16,47,31.00
2017,06,25,16,48,30.90
2017,06,25,16,49,30.90
2017,06,25,16,50,30.90
2017,06,25,16,51,30.80
2017,06,25,16,52,30.80
2017,06,25,16,53,30.80
2017,06,25,16,54,30.70
2017,06,25,16,55,30.70
2017,06,25,16,56,30.70
2017,06,25,16,57,30.70
2017,06,25,16,58,30.60
2017,06,25,16,59,30.60
2017,06,25,17,00,30.60
2017,06,25,17,01,30.60
2017,06,25,17,02,30.60
2017,06,25,17,03,30.60
2017,06,25,17,04,30.60
2017,06,25,17,05,30.60
2017,06,25,17,06,30.60
2017,06,25,17,07,30.60
2017,06,25,17,08,30.60
2017,06,25,17,09,30.60
2017,06,25,17,10,30.60
2017,06,25,17,11,30.60
2017,06,25,17,12,30.50
2017,06,25,17,13,30.40
2017,06,25,17,14,30.40
2017,06,25,17,15,30.40
2017,06,25,17,16,30.40
2017,06,25,17,17,30.30
2017,06,25,17,18,30.30
2017,06,25,17,19,30.30